Wausau, WI

4:46 AM CDT on May 25, 2018 (GMT -0500)
Wausau Downtown

Weather History for KAUW - January, 2012

Change the Weather History Date:

Friday, January 27, 2012

  Actual Average Record
Temperature  
Mean Temperature 26 °F 15 °F  
Max Temperature 36 °F 24 °F 49 °F (2002)
Min Temperature 16 °F 6 °F -31 °F (1950)
Degree Days  
Heating Degree Days 39 50  
Month to date heating degree days 1194 1367  
Since 1 July heating degree days 4014 4653  
Cooling Degree Days 0 0  
Month to date cooling degree days 0 0  
Year to date cooling degree days 0 0  
Moisture  
Dew Point 21 °F    
Average Humidity 63    
Maximum Humidity 85    
Minimum Humidity 41    
Precipitation  
Precipitation 0.03 in 0.03 in 0.46 in (1908)
Month to date precipitation 1.03 0.89  
Year to date precipitation 1.03 0.89  
Snow  
Snow 0.40 in 0.40 in 5.30 in (2013)
Month to date snowfall 12.1 11.8  
Since 1 July snowfall 24.4 34.0  
Snow Depth 9.00 in    
Sea Level Pressure  
Sea Level Pressure 29.76 in    
Wind  
Wind Speed 8 mph (WSW)    
Max Wind Speed 26 mph    
Max Gust Speed 37 mph    
Visibility 8 miles    
Events Snow    
T = Trace of Precipitation, MM = Missing Value Source: NWS Daily Summary

Daily Weather History Graph

Daily Weather History Graph

Search for Another Location

Airport or City:

Astronomy

Jan. 27, 2012 Rise Set
Actual Time 7:24 AM CST 4:58 PM CST
Civil Twilight 6:52 AM CST 5:30 PM CST
Nautical Twilight 6:16 AM CST 6:06 PM CST
Astronomical Twilight 5:42 AM CST 6:40 PM CST
Moon 9:04 AM CST (1/27) 10:06 PM CST (1/27)
Length of Visible Light 10h 38m
Length of Day
9h 34m
Waxing Crescent, 20% of the Moon is Illuminated
Jan 27
Waxing Crescent
Jan 30
First Quarter
Feb 7
Full
Feb 14
Last Quarter
Feb 21
New

Hourly Weather History & Observations

Time (CST) Temp. Windchill Dew Point Humidity Pressure Visibility Wind Dir Wind Speed Gust Speed Precip Events Conditions
12:21 AM 32.0 °F 24.8 °F 21.2 °F 64% 29.64 in 10.0 mi NW 8.1 mph - N/A   Overcast
12:54 AM 30.9 °F 22.8 °F 19.9 °F 64% 29.69 in 10.0 mi NW 9.2 mph - N/A   Mostly Cloudy
1:54 AM 28.0 °F 21.7 °F 18.0 °F 66% 29.71 in 10.0 mi WNW 5.8 mph - N/A   Clear
2:54 AM 26.1 °F 16.2 °F 18.0 °F 71% 29.74 in 10.0 mi WNW 10.4 mph - N/A   Clear
3:54 AM 24.1 °F 17.0 °F 17.1 °F 75% 29.77 in 10.0 mi WNW 5.8 mph - N/A   Clear
4:54 AM 21.9 °F 13.4 °F 16.0 °F 78% 29.79 in 10.0 mi WNW 6.9 mph - N/A   Clear
5:54 AM 21.0 °F 14.6 °F 15.1 °F 78% 29.81 in 10.0 mi WNW 4.6 mph - N/A   Clear
6:54 AM 17.1 °F - 12.9 °F 84% 29.82 in 10.0 mi Calm Calm - N/A   Clear
7:54 AM 17.1 °F - 14.0 °F 88% 29.84 in 10.0 mi Calm Calm - N/A   Clear
8:54 AM 21.0 °F 12.4 °F 15.1 °F 78% 29.84 in 10.0 mi NW 6.9 mph - N/A   Clear
9:54 AM 21.9 °F 17.2 °F 15.1 °F 75% 29.86 in 10.0 mi West 3.5 mph - N/A   Clear
10:54 AM 27.0 °F - 15.1 °F 61% 29.86 in 10.0 mi Calm Calm - N/A   Partly Cloudy
11:54 AM 28.9 °F 25.2 °F 15.1 °F 56% 29.85 in 10.0 mi SW 3.5 mph - N/A   Clear
12:54 PM 32.0 °F 28.7 °F 16.0 °F 52% 29.82 in 10.0 mi South 3.5 mph - N/A   Partly Cloudy
1:54 PM 34.0 °F 26.0 °F 12.9 °F 42% 29.82 in 10.0 mi SW 10.4 mph - N/A   Mostly Cloudy
2:54 PM 34.0 °F 27.2 °F 16.0 °F 48% 29.81 in 10.0 mi SSW 8.1 mph - N/A   Overcast
3:54 PM 36.0 °F 28.0 °F 15.1 °F 43% 29.80 in 10.0 mi SW 11.5 mph - N/A   Overcast
4:16 PM 33.8 °F 21.6 °F 24.8 °F 70% 29.75 in 1.5 mi SW 23.0 mph 36.8 mph 0.00 in Snow Light Snow
4:27 PM 32.0 °F 22.5 °F 26.6 °F 80% 29.74 in 1.5 mi SW 12.7 mph 24.2 mph 0.00 in Snow Light Snow
4:31 PM 32.0 °F 23.6 °F 26.6 °F 80% 29.74 in 2.5 mi SSW 10.4 mph 19.6 mph 0.00 in Snow Light Snow
4:38 PM 32.0 °F 24.2 °F 26.6 °F 80% 29.73 in 6.0 mi SSW 9.2 mph - 0.00 in Snow Light Snow
4:54 PM 32.0 °F 25.6 °F 25.0 °F 75% 29.79 in 10.0 mi SSW 6.9 mph - 0.00 in   Overcast
5:54 PM 34.0 °F 23.8 °F 19.9 °F 56% 29.79 in 10.0 mi SW 16.1 mph 25.3 mph 0.00 in   Overcast
6:37 PM 33.8 °F 23.9 °F 21.2 °F 60% 29.73 in 6.0 mi SW 15.0 mph 25.3 mph 0.00 in Snow Light Snow
6:54 PM 30.9 °F 20.7 °F 25.0 °F 79% 29.80 in 2.0 mi SSW 13.8 mph 25.3 mph 0.00 in Snow Light Snow
7:21 PM 30.2 °F 22.6 °F 26.6 °F 86% 29.72 in 4.0 mi South 8.1 mph - 0.00 in Snow Light Snow
7:54 PM 30.9 °F 22.8 °F 26.1 °F 82% 29.78 in 3.0 mi SSW 9.2 mph - 0.00 in Snow Light Snow
8:17 PM 30.2 °F 20.2 °F 26.6 °F 86% 29.70 in 6.0 mi SSW 12.7 mph - 0.00 in Snow Light Snow
8:28 PM 30.2 °F 20.2 °F 26.6 °F 86% 29.70 in 5.0 mi SSW 12.7 mph - 0.00 in Snow Light Snow
8:54 PM 30.9 °F 21.2 °F 27.0 °F 85% 29.75 in 2.5 mi SW 12.7 mph 20.7 mph 0.00 in Snow Light Snow
9:10 PM 30.2 °F 20.2 °F 28.4 °F 93% 29.69 in 3.0 mi SW 12.7 mph - 0.00 in Snow Light Snow
9:47 PM 30.2 °F 20.8 °F 28.4 °F 93% 29.68 in 10.0 mi SW 11.5 mph - 0.00 in   Overcast
9:54 PM 30.9 °F 22.2 °F 28.0 °F 89% 29.74 in 10.0 mi SSW 10.4 mph - 0.00 in   Overcast
10:39 PM 32.0 °F 25.6 °F 28.4 °F 87% 29.67 in 8.0 mi WSW 6.9 mph - 0.00 in   Overcast
10:54 PM 32.0 °F 24.2 °F 28.0 °F 85% 29.73 in 6.0 mi West 9.2 mph - 0.00 in Snow Light Snow
11:37 PM 32.0 °F 22.5 °F 26.6 °F 80% 29.69 in 4.0 mi NNW 12.7 mph 21.9 mph 0.00 in Snow Light Snow
11:54 PM 30.9 °F 20.7 °F 25.0 °F 79% 29.75 in 8.0 mi NW 13.8 mph 21.9 mph 0.00 in Snow Light Snow